DECAYED

EPSILON R/B, 43936 (Decayed)

Orbit data source: Space-Track

EPSILON R/B, 43936 was space debris in LEO originally from a launch on Fri, 18 Jan 2019 UTC launched from the Kagoshima Space Center University Of Tokyo (KSCUT). Debris objects in space refer to the collection of defunct objects orbiting the Earth. Examples of debris include non-operational satellites, rocket bodies, and fragments generated from explosions, collisions, or faulty payload assembly.

Not visible in the next 10 days
Identifier
43936, 2019-003E
Orbit
Decayed
Country
Flag of JPJP / JPN
Related business
Manufacturer
JAXA
Mission
Decayed spacecraft
Bus & Motor
EPBS, Unknown motor
Mass
~185 kg wet, ~185 kg dry
Launch date (UTC)
2019-01-18 (7 years ago)
Launch vehicle
Unknown
Launch site
Kagoshima Space Center University Of Tokyo (KSCUT)
Object type
Payload
Rocket body
Debris
Shape & HBR
Cyl, 0.8 m
Radar Cross Section
2.297 m², Large (>1 m²)

Expand to show TLE details & history
Last TLE update: 10 months ago

TLE from 10 months ago
0 EPSILON R/B
1 43936U 19003E   24316.94575978  .17950001  23612-5  27064-3 0  9992
2 43936  97.0227 336.1311 0008488 267.9293 140.8430 16.48315615325266
Epoch: 2024-11-11T22:41Z
TLE epoch observation values (Epoch: 2024-11-11T22:41:53.644Z)
Latitude
48.45283°
Longitude
-63.85017°
Altitude
155.818 km
Speed
7.815 km/s
True Right ascension
21h 52m 44s
True Declination
48° 15' 59"
Sunlit
Object was in full shadow at epoch
Visualization orbit readout
Latitude
Unknown
Longitude
Unknown
Altitude
Unknown
Speed
Unknown
Apparent Right ascension
Unknown
Apparent Declination
Unknown
Sunlit
N/A
Visualization observer readout
Local Sidereal Time
23:23:11
Azimuth
Unknown
Elevation
Unknown
Doppler factor
Unknown
Orbital elements
Apogee altitude
146.088 km
Perigee altitude
135.022 km
Semi-major axis
6,518.692 km
Eccentricity
0.00085
Inclination
97.0227°
RAAN
336.1311°
Arg. of periapsis
267.9293°
True anomaly
140.90437°
Mean anomaly
140.843°
Eccentric anomaly
140.87369°
Mean motion
4.12385 °/min
Orbital period
87.3 mins
BSTAR
0.00027064
Loading maneuver chart data...
Computing Atmospheric mass density...
Loading historical data...
Loading historical data...
Loading historical data...
Loading historical data...
Loading historical data...
Loading historical data...
Loading historical data...

Documentation

Showing up to 5 results
|